Tracking 25709 objects as of 23-May-2022
HD Live streaming from Space Station
objects crossing your sky now

COSMOS 2251 DEB

Track COSMOS 2251 DEB now!
10-day predictions


NORAD ID: 40800
Int'l Code: 1993-036BWD
Perigee: 588.4 km
Apogee: 827.3 km
Inclination: 73.8 °
Period: 98.8 minutes
Semi major axis: 7078 km
RCS: Unknown
Launch date: June 16, 1993
Source: Commonwealth of Independent States (former USSR) (CIS)
Launch site: PLESETSK MISSILE AND SPACE COMPLEX (PKMTR)

Note: This is SATELLITE DEBRIS
aabbcc
Your satellite tracking list
Your tracking list is empty




NASA's NSSDC Master Catalog

Two Line Element Set (TLE):
1 40800U 93036BWD 22142.30854387  .00027444  00000-0  49314-2 0  9996
2 40800  73.7920 340.6859 0168797 190.0209 345.1196 14.57666802537308
Source of the keplerian elements: AFSPC